Oscoda, MI

10:53 AM EST on November 21, 2017 (GMT -0500)
Oscoda-Wurtsmith

Weather History for KOSC - May, 2014

Change the Weather History Date:

Sunday, May 25, 2014

  Actual Average Record
Temperature  
Mean Temperature 62 °F -  
Max Temperature 83 °F 62 °F 83 °F (2014)
Min Temperature 42 °F 43 °F 28 °F (2002)
Degree Days  
Heating Degree Days 2    
Growing Degree Days 12 (Base 50)    
Moisture  
Dew Point 43 °F    
Average Humidity 48    
Maximum Humidity 83    
Minimum Humidity 20    
Precipitation  
Precipitation 0.00 in - - ()
Sea Level Pressure  
Sea Level Pressure 30.08 in    
Wind  
Wind Speed 4 mph (SW)    
Max Wind Speed 18 mph    
Max Gust Speed 23 mph    
Visibility 10 miles    
Events      
Averages and records for this station are not official NWS values.
T = Trace of Precipitation, MM = Missing Value Source: NWS Daily Summary

Daily Weather History Graph

Daily Weather History Graph

Search for Another Location

Airport or City:

Trip Planner

Search our weather history database for the weather conditions in past years. The results will help you decide how hot, cold, wet, or windy it might be!

Date:

Astronomy

May. 25, 2014 Rise Set
Actual Time 5:56 AM EDT 9:04 PM EDT
Civil Twilight 5:21 AM EDT 9:39 PM EDT
Nautical Twilight 4:36 AM EDT 10:25 PM EDT
Astronomical Twilight 3:42 AM EDT 11:20 PM EDT
Moon 4:08 AM EDT (5/25) 5:57 PM EDT (5/25)
Length of Visible Light 16h 18m
Length of Day
15h 08m
Waning Crescent, 10% of the Moon is Illuminated
May 25
Waning Crescent
May 28
New
Jun 5
First Quarter
Jun 13
Full
Jun 19
Last Quarter

Hourly Weather History & Observations

Time (EDT) Temp. Windchill Dew Point Humidity Pressure Visibility Wind Dir Wind Speed Gust Speed Precip Events Conditions
12:14 AM 49.1 °F - 39.7 °F 70% 30.14 in 10.0 mi Calm Calm - N/A   Clear
12:34 AM 47.8 °F - 41.2 °F 78% 30.14 in 10.0 mi Calm Calm - N/A   Clear
12:53 AM 47.3 °F - 39.7 °F 75% 30.13 in 10.0 mi Calm Calm - N/A   Clear
1:14 AM 47.1 °F - 40.1 °F 77% 30.13 in 10.0 mi Calm Calm - N/A   Clear
1:34 AM 46.4 °F - 39.2 °F 76% 30.12 in 10.0 mi Calm Calm - N/A   Clear
1:53 AM 46.4 °F - 39.2 °F 76% 30.12 in 10.0 mi Calm Calm - N/A   Clear
2:14 AM 44.6 °F - 38.1 °F 78% 30.12 in 10.0 mi Calm Calm - N/A   Clear
2:34 AM 44.4 °F 42.9 °F 37.8 °F 77% 30.12 in 10.0 mi West 3.5 mph - N/A   Clear
2:53 AM 45.1 °F - 38.5 °F 77% 30.11 in 10.0 mi Calm Calm - N/A   Clear
3:14 AM 45.5 °F - 38.1 °F 75% 30.11 in 10.0 mi Calm Calm - N/A   Clear
3:34 AM 44.6 °F - 37.6 °F 76% 30.11 in 10.0 mi Calm Calm - N/A   Clear
3:53 AM 43.5 °F - 37.4 °F 79% 30.11 in 10.0 mi Calm Calm - N/A   Clear
4:14 AM 43.3 °F - 37.2 °F 79% 30.11 in 10.0 mi Calm Calm - N/A   Clear
4:33 AM 44.6 °F - 38.1 °F 78% 30.11 in 10.0 mi Calm Calm - N/A   Clear
4:53 AM 43.7 °F - 37.4 °F 78% 30.11 in 10.0 mi Calm Calm - N/A   Clear
5:14 AM 42.4 °F - 36.9 °F 81% 30.12 in 10.0 mi Calm Calm - N/A   Clear
5:33 AM 42.8 °F - 37.4 °F 81% 30.12 in 10.0 mi Calm Calm - N/A   Clear
5:53 AM 44.2 °F - 39.4 °F 83% 30.13 in 10.0 mi Calm Calm - N/A   Clear
6:14 AM 45.0 °F - 37.9 °F 76% 30.13 in 10.0 mi Calm Calm - N/A   Clear
6:33 AM 46.8 °F - 38.7 °F 73% 30.14 in 10.0 mi Calm Calm - N/A   Clear
6:54 AM 49.8 °F - 41.2 °F 72% 30.14 in 10.0 mi Calm Calm - N/A   Clear
7:14 AM 51.6 °F - 42.1 °F 70% 30.14 in 10.0 mi Calm Calm - N/A   Clear
7:33 AM 55.0 °F - 43.3 °F 65% 30.14 in 10.0 mi Calm Calm - N/A   Clear
7:54 AM 59.7 °F - 44.6 °F 57% 30.14 in 10.0 mi Calm Calm - N/A   Clear
8:14 AM 63.5 °F - 45.0 °F 51% 30.14 in 10.0 mi Calm Calm - N/A   Clear
8:33 AM 66.6 °F - 45.5 °F 47% 30.14 in 10.0 mi NNW 3.5 mph - N/A   Clear
8:54 AM 70.2 °F - 44.1 °F 39% 30.14 in 10.0 mi WNW 4.6 mph - N/A   Clear
9:14 AM 73.2 °F - 43.9 °F 35% 30.13 in 10.0 mi West 6.9 mph - N/A   Clear
9:33 AM 74.3 °F - 44.1 °F 34% 30.13 in 10.0 mi WSW 8.1 mph - N/A   Clear
9:54 AM 75.4 °F - 43.5 °F 32% 30.13 in 10.0 mi West 10.4 mph - N/A   Clear
10:14 AM 75.9 °F - 42.6 °F 30% 30.12 in 10.0 mi West 11.5 mph - N/A   Clear
10:54 AM 78.8 °F - 43.0 °F 28% 30.11 in 10.0 mi West 9.2 mph - N/A   Clear
11:13 AM 79.7 °F - 40.6 °F 25% 30.10 in 10.0 mi West 13.8 mph - N/A   Clear
11:33 AM 80.1 °F - 40.6 °F 25% 30.10 in 10.0 mi WSW 11.5 mph 17.3 mph N/A   Clear
11:54 AM 81.1 °F - 41.4 °F 24% 30.10 in 10.0 mi West 8.1 mph - N/A   Clear
12:14 PM 81.1 °F - 40.8 °F 24% 30.10 in 10.0 mi WSW 10.4 mph 16.1 mph N/A   Clear
12:33 PM 82.2 °F - 39.6 °F 22% 30.09 in 10.0 mi SW 16.1 mph - N/A   Clear
12:54 PM 82.8 °F - 39.4 °F 21% 30.09 in 10.0 mi WSW 9.2 mph - N/A   Clear
1:13 PM 83.5 °F - 40.3 °F 22% 30.08 in 10.0 mi WSW 10.4 mph 16.1 mph N/A   Clear
1:34 PM 83.8 °F - 38.7 °F 20% 30.08 in 10.0 mi West 8.1 mph 17.3 mph N/A   Clear
1:54 PM 83.5 °F - 43.2 °F 24% 30.07 in 10.0 mi SW 11.5 mph 17.3 mph N/A   Clear
2:13 PM 83.5 °F - 43.2 °F 24% 30.07 in 10.0 mi SSW 11.5 mph 19.6 mph N/A   Clear
2:34 PM 83.8 °F - 43.7 °F 24% 30.06 in 10.0 mi SSW 13.8 mph 19.6 mph N/A   Clear
2:54 PM 83.3 °F - 44.1 °F 25% 30.06 in 10.0 mi SSW 10.4 mph - N/A   Clear
3:13 PM 83.3 °F - 44.6 °F 26% 30.05 in 10.0 mi SSW 12.7 mph 18.4 mph N/A   Clear
3:34 PM 83.7 °F - 44.8 °F 26% 30.05 in 10.0 mi SSW 13.8 mph 21.9 mph N/A   Clear
3:54 PM 82.6 °F - 45.0 °F 27% 30.04 in 10.0 mi SSW 13.8 mph 19.6 mph N/A   Clear
4:13 PM 83.3 °F - 43.5 °F 25% 30.04 in 10.0 mi SSW 15.0 mph 20.7 mph N/A   Clear
4:34 PM 82.9 °F - 44.4 °F 26% 30.03 in 10.0 mi South 16.1 mph 20.7 mph N/A   Clear
4:54 PM 82.8 °F - 44.2 °F 26% 30.02 in 10.0 mi SSW 15.0 mph - N/A   Clear
5:13 PM 82.8 °F - 44.4 °F 26% 30.02 in 10.0 mi South 15.0 mph 20.7 mph N/A   Clear
5:34 PM 82.4 °F - 45.0 °F 27% 30.02 in 10.0 mi South 18.4 mph 23.0 mph N/A   Clear
5:54 PM 82.2 °F - 45.1 °F 27% 30.01 in 10.0 mi SSW 13.8 mph 21.9 mph N/A   Clear
6:13 PM 81.7 °F - 44.8 °F 27% 30.01 in 10.0 mi SSW 11.5 mph 21.9 mph N/A   Clear
6:34 PM 81.5 °F - 45.0 °F 28% 30.00 in 10.0 mi South 12.7 mph - N/A   Clear
6:53 PM 81.0 °F - 45.1 °F 28% 30.00 in 10.0 mi SSW 11.5 mph - N/A   Clear
7:13 PM 80.6 °F - 45.1 °F 29% 30.00 in 10.0 mi SSW 13.8 mph - N/A   Clear
7:34 PM 79.7 °F - 44.8 °F 29% 30.00 in 10.0 mi SSW 10.4 mph 19.6 mph N/A   Clear
7:53 PM 79.0 °F - 45.1 °F 30% 30.00 in 10.0 mi South 9.2 mph - N/A   Clear
8:13 PM 77.9 °F - 45.5 °F 32% 30.00 in 10.0 mi South 8.1 mph - N/A   Clear
8:34 PM 76.3 °F - 45.5 °F 33% 30.00 in 10.0 mi SSW 6.9 mph - N/A   Clear
8:53 PM 75.0 °F - 45.9 °F 35% 30.00 in 10.0 mi SSW 6.9 mph - N/A   Clear
9:14 PM 73.4 °F - 46.0 °F 38% 29.99 in 10.0 mi SSW 8.1 mph - N/A   Clear
9:34 PM 69.4 °F - 48.2 °F 47% 29.99 in 10.0 mi SW 6.9 mph - N/A   Clear
9:53 PM 65.7 °F - 48.4 °F 54% 30.00 in 10.0 mi SW 5.8 mph - N/A   Clear
10:14 PM 64.9 °F - 49.1 °F 56% 30.00 in 10.0 mi SW 6.9 mph - N/A   Clear
10:34 PM 63.1 °F - 49.1 °F 60% 30.01 in 10.0 mi SW 5.8 mph - N/A   Clear
10:53 PM 61.9 °F - 49.3 °F 63% 30.01 in 10.0 mi SW 5.8 mph - N/A   Clear
11:14 PM 62.6 °F - 48.2 °F 59% 30.01 in 10.0 mi WSW 6.9 mph - N/A   Clear
11:34 PM 61.9 °F - 47.3 °F 59% 30.01 in 10.0 mi WSW 6.9 mph - N/A   Clear
11:53 PM 63.0 °F - 47.3 °F 57% 30.01 in 10.0 mi WSW 6.9 mph - N/A   Clear